Hourly Data Report for April 26, 2016

All times are specified in Local Standard Time (LST). Add 1 hour to adjust for Daylight Saving Time where and when it is observed.

EMERSON AUTO
MANITOBA

49°00'00.000" N
97°14'15.000" W
242.00 m
5020881
71560
WEX

Download Data

Hourly Data (April 2016)
Hourly Data Report for April 26, 2016
Temp Definition
°C
Dew Point Temp Definition
°C
Rel Hum Definition
%
Wind Dir Definition
10's deg

Wind Spd Definition
km/h
Visibility Definition
km
Stn Press Definition
kPa
Hmdx Definition


Wind Chill Definition


Weather Definition


TIME
00:00 5.4 0.0 68 13 7   98.69     LegendNANA
01:00 4.8 0.5 74 11 6   98.72     LegendNANA
02:00 4.3 0.4 75 6 6   98.74     LegendNANA
03:00 3.4 0.5 82 2 9   98.76     LegendNANA
04:00 2.2 -0.2 84 5 9   98.79     LegendNANA
05:00 0.4 -2.2 83 5 11   98.84     LegendNANA
06:00 1.9 -1.8 77 6 14   98.88     LegendNANA
07:00 3.5 -3.1 62 7 15   98.90     LegendNANA
08:00 5.5 -2.5 57 8 14   98.94     LegendNANA
09:00 7.6 -2.0 51 7 16   98.92     LegendNANA
10:00 9.4 -3.0 42 8 17   98.92     LegendNANA
11:00 10.9 -3.3 37 9 17   98.94     LegendNANA
12:00 11.5 -5.6 30 8 20   98.91     LegendNANA
13:00 12.1 -5.7 28 8 18   98.91     LegendNANA
14:00 13.0 -4.5 29 8 20   98.87     LegendNANA
15:00 13.5 -6.7 24 9 20   98.81     LegendNANA
16:00 13.8 -6.0 25 9 22   98.77     LegendNANA
17:00 13.0 -6.4 25 8 21   98.75     LegendNANA
18:00 12.4 -6.1 27 9 17   98.77     LegendNANA
19:00 11.5 -2.9 36 11 12   98.85     LegendNANA
20:00 10.3 -3.1 39 9 11   98.87     LegendNANA
21:00 9.3 -2.5 43 7 12   98.88     LegendNANA
22:00 7.5 -1.9 51 5 13   98.89     LegendNANA
23:00 7.5 -2.9 48 7 14   98.90     LegendNANA

Notes on Data Quality.

Legend

  • E = Estimated
  • M = Missing
  • NA = Not Available
  • ‡ = Partner data that is not subject to review by the National Climate Archives
Date modified: